| time (UTC) | temp F | wind direction | speed MPH | gust MPH | rain 1hr in | rain 24hr in | rain mn in | humidity % | barometer mb |
| 20260905030032 | 57 | 135 | 1.0 | 3.0 | 0.00 | 0.01 | 0.01 | 86 | 1016.9 |
| 20260905024530 | 57 | 135 | 1.0 | 4.0 | 0.00 | 0.01 | 0.01 | 85 | 1016.8 |
| 20260905023107 | 58 | 93 | 2.0 | 4.0 | 0.00 | 0.01 | 0.01 | 82 | 1016.8 |
| 20260905021532 | 58 | 87 | 2.0 | 4.0 | 0.00 | 0.01 | 0.01 | 80 | 1016.8 |
| 20260905020107 | 59 | 58 | 3.0 | 5.0 | 0.00 | 0.01 | 0.01 | 78 | 1016.6 |
| 20260905014531 | 60 | 52 | 3.0 | 5.0 | 0.00 | 0.01 | 0.01 | 75 | 1016.4 |
| 20260905011529 | 63 | 12 | 2.0 | 7.0 | 0.00 | 0.01 | 0.01 | 72 | 1016.1 |
| 20260905010031 | 63 | 3 | 3.0 | 7.0 | 0.00 | 0.01 | 0.01 | 72 | 1016.1 |
| 20260905004530 | 63 | 18 | 3.0 | 8.0 | 0.00 | 0.01 | 0.01 | 73 | 1016.0 |
| 20260905003033 | 63 | 360 | 3.0 | 7.0 | 0.00 | 0.01 | 0.01 | 72 | 1015.8 |
| 20260905000031 | 64 | 265 | 0.0 | 2.0 | 0.00 | 0.01 | 0.01 | 71 | 1015.7 |
| 20260904234531 | 64 | 247 | 0.0 | 2.0 | 0.00 | 0.01 | 0.01 | 66 | 1015.7 |
| 20260904233029 | 64 | 233 | 1.0 | 2.0 | 0.00 | 0.01 | 0.01 | 66 | 1015.7 |
| 20260904231532 | 63 | 200 | 1.0 | 4.0 | 0.00 | 0.01 | 0.01 | 68 | 1015.8 |
| 20260904230030 | 62 | 233 | 2.0 | 6.0 | 0.00 | 0.01 | 0.01 | 68 | 1015.8 |
| 20260904224531 | 63 | 225 | 3.0 | 8.0 | 0.00 | 0.01 | 0.01 | 69 | 1015.7 |
| 20260904223031 | 64 | 235 | 3.0 | 6.0 | 0.00 | 0.01 | 0.01 | 67 | 1015.7 |
| 20260904221529 | 65 | 223 | 1.0 | 5.0 | 0.00 | 0.01 | 0.01 | 67 | 1015.6 |
| 20260904220032 | 65 | 292 | 0.0 | 1.0 | 0.00 | 0.01 | 0.01 | 66 | 1015.5 |
| 20260904214605 | 64 | 291 | 1.0 | 4.0 | 0.00 | 0.01 | 0.01 | 68 | 1015.4 |
| 20260904211532 | 63 | 261 | 1.0 | 3.0 | 0.00 | 0.01 | 0.01 | 70 | 1015.4 |
| 20260904210029 | 63 | 302 | 0.0 | 3.0 | 0.00 | 0.01 | 0.01 | 70 | 1015.2 |
| 20260904204531 | 63 | 312 | 1.0 | 4.0 | 0.00 | 0.01 | 0.01 | 71 | 1015.3 |
| 20260904203029 | 63 | 260 | 0.0 | 4.0 | 0.00 | 0.01 | 0.01 | 72 | 1015.4 |
| 20260904201533 | 62 | 320 | 1.0 | 4.0 | 0.00 | 0.01 | 0.01 | 73 | 1015.5 |
| 20260904200030 | 61 | 271 | 1.0 | 4.0 | 0.00 | 0.01 | 0.01 | 73 | 1015.7 |
| 20260904193106 | 61 | 45 | 0.0 | 2.0 | 0.00 | 0.01 | 0.01 | 74 | 1015.8 |
| 20260904191531 | 61 | 21 | 0.0 | 3.0 | 0.00 | 0.01 | 0.01 | 76 | 1015.9 |
| 20260904190040 | 60 | 295 | 1.0 | 5.0 | 0.00 | 0.01 | 0.01 | 77 | 1016.1 |
| 20260904184530 | 59 | 315 | 0.0 | 3.0 | 0.00 | 0.01 | 0.01 | 79 | 1016.1 |
| 20260904183037 | 58 | 317 | 1.0 | 4.0 | 0.00 | 0.01 | 0.01 | 80 | 1016.1 |
| 20260904181533 | 57 | 259 | 0.0 | 2.0 | 0.00 | 0.01 | 0.01 | 82 | 1016.1 |
| 20260904180029 | 57 | 315 | 0.0 | 2.0 | 0.00 | 0.01 | 0.01 | 83 | 1016.1 |
| 20260904174530 | 56 | 283 | 0.0 | 2.0 | 0.00 | 0.01 | 0.01 | 83 | 1016.1 |
| 20260904173030 | 57 | 270 | 0.0 | 1.0 | 0.00 | 0.01 | 0.01 | 83 | 1016.1 |
| 20260904171532 | 57 | 278 | 1.0 | 5.0 | 0.00 | 0.01 | 0.01 | 85 | 1016.1 |
| 20260904170034 | 57 | 296 | 2.0 | 6.0 | 0.00 | 0.01 | 0.01 | 87 | 1015.9 |
| 20260904164532 | 56 | 273 | 1.0 | 4.0 | 0.00 | 0.01 | 0.01 | 90 | 1015.9 |
| 20260904163105 | 55 | 301 | 2.0 | 6.0 | 0.00 | 0.01 | 0.01 | 93 | 1015.9 |
| 20260904161531 | 54 | 317 | 0.0 | 3.0 | 0.00 | 0.01 | 0.01 | 96 | 1015.9 |
| 20260904160034 | 53 | 270 | 0.0 | 2.0 | 0.00 | 0.01 | 0.01 | 98 | 1016.0 |
| 20260904154529 | 53 | 233 | 0.0 | 3.0 | 0.00 | 0.01 | 0.01 | 98 | 1015.9 |
| 20260904153116 | 52 | 225 | 0.0 | 2.0 | 0.01 | 0.01 | 0.01 | 98 | 1015.7 |
| 20260904151605 | 51 | 225 | 0.0 | 1.0 | 0.01 | 0.01 | 0.01 | 98 | 1015.6 |
| 20260904150029 | 51 | 225 | 0.0 | 2.0 | 0.01 | 0.01 | 0.01 | 98 | 1015.5 |
| 20260904144532 | 51 | 204 | 0.0 | 2.0 | 0.01 | 0.01 | 0.00 | 98 | 1015.4 |
| 20260904143105 | 51 | 192 | 0.0 | 2.0 | 0.00 | 0.00 | 0.00 | 98 | 1015.3 |
| 20260904141531 | 50 | 135 | 0.0 | 0.0 | 0.00 | 0.00 | 0.00 | 98 | 1015.1 |
| 20260904140032 | 50 | 135 | 0.0 | 2.0 | 0.00 | 0.00 | 0.00 | 98 | 1014.9 |
| 20260904134530 | 50 | 135 | 0.0 | 2.0 | 0.00 | 0.00 | 0.00 | 98 | 1014.9 |
| 20260904133032 | 50 | 135 | 0.0 | 0.0 | 0.00 | 0.00 | 0.00 | 98 | 1014.8 |
| 20260904130030 | 50 | 135 | 0.0 | 0.0 | 0.00 | 0.00 | 0.00 | 98 | 1014.4 |
| 20260904124530 | 50 | 135 | 0.0 | 0.0 | 0.00 | 0.00 | 0.00 | 98 | 1014.4 |
| 20260904123033 | 50 | 135 | 0.0 | 0.0 | 0.00 | 0.00 | 0.00 | 98 | 1014.3 |
| 20260904121606 | 50 | 135 | 0.0 | 0.0 | 0.00 | 0.00 | 0.00 | 98 | 1014.2 |
| 20260904120030 | 50 | 135 | 0.0 | 0.0 | 0.00 | 0.00 | 0.00 | 98 | 1014.1 |
| 20260904114530 | 50 | 135 | 0.0 | 0.0 | 0.00 | 0.00 | 0.00 | 97 | 1014.0 |
| 20260904113031 | 50 | 135 | 0.0 | 0.0 | 0.00 | 0.00 | 0.00 | 97 | 1013.9 |
| 20260904111530 | 50 | 135 | 0.0 | 0.0 | 0.00 | 0.00 | 0.00 | 97 | 1013.8 |
| 20260904110029 | 50 | 135 | 0.0 | 0.0 | 0.00 | 0.00 | 0.00 | 97 | 1013.7 |
| 20260904103030 | 50 | 135 | 0.0 | 0.0 | 0.00 | 0.01 | 0.00 | 97 | 1013.4 |
| 20260904101530 | 50 | 135 | 0.0 | 1.0 | 0.00 | 0.01 | 0.00 | 97 | 1013.2 |
| 20260904100029 | 49 | 135 | 0.0 | 1.0 | 0.00 | 0.01 | 0.00 | 97 | 1013.1 |
| 20260904094532 | 49 | 135 | 0.0 | 0.0 | 0.00 | 0.01 | 0.00 | 97 | 1013.0 |
| 20260904093029 | 49 | 140 | 1.0 | 2.0 | 0.00 | 0.01 | 0.00 | 97 | 1013.0 |
| 20260904091530 | 48 | 157 | 0.0 | 1.0 | 0.00 | 0.01 | 0.00 | 96 | 1013.1 |
| 20260904090030 | 49 | 144 | 0.0 | 2.0 | 0.00 | 0.01 | 0.00 | 96 | 1012.9 |
| 20260904084531 | 49 | 146 | 0.0 | 2.0 | 0.00 | 0.01 | 0.00 | 96 | 1012.9 |
| 20260904083030 | 49 | 157 | 0.0 | 2.0 | 0.00 | 0.01 | 0.00 | 96 | 1012.8 |
| 20260904081530 | 50 | 136 | 0.0 | 1.0 | 0.00 | 0.01 | 0.00 | 96 | 1012.8 |
| 20260904080032 | 49 | 135 | 0.0 | 3.0 | 0.00 | 0.01 | 0.00 | 96 | 1012.8 |
| 20260904073031 | 50 | 135 | 0.0 | 2.0 | 0.00 | 0.01 | 0.00 | 95 | 1012.9 |
| 20260904071530 | 50 | 135 | 1.0 | 2.0 | 0.00 | 0.01 | 0.00 | 95 | 1012.8 |
| 20260904070033 | 50 | 135 | 2.0 | 4.0 | 0.00 | 0.01 | 0.00 | 95 | 1012.7 |
| 20260904064543 | 50 | 139 | 0.0 | 3.0 | 0.00 | 0.01 | 0.01 | 95 | 1012.7 |
| 20260904063030 | 50 | 164 | 1.0 | 2.0 | 0.00 | 0.01 | 0.01 | 94 | 1012.7 |
| 20260904061530 | 50 | 112 | 2.0 | 4.0 | 0.00 | 0.01 | 0.01 | 94 | 1012.6 |
| 20260904060031 | 51 | 126 | 2.0 | 4.0 | 0.00 | 0.01 | 0.01 | 93 | 1012.6 |
| 20260904054531 | 51 | 135 | 1.0 | 3.0 | 0.00 | 0.01 | 0.01 | 93 | 1012.6 |
| 20260904053032 | 52 | 176 | 1.0 | 3.0 | 0.00 | 0.01 | 0.01 | 93 | 1012.6 |
| 20260904051531 | 52 | 150 | 0.0 | 2.0 | 0.00 | 0.01 | 0.01 | 92 | 1012.7 |
| 20260904050108 | 52 | 129 | 1.0 | 3.0 | 0.00 | 0.01 | 0.01 | 92 | 1012.7 |
| 20260904044530 | 53 | 135 | 0.0 | 3.0 | 0.00 | 0.01 | 0.01 | 91 | 1012.7 |
| 20260904043031 | 53 | 154 | 2.0 | 4.0 | 0.00 | 0.01 | 0.01 | 90 | 1012.7 |
| 20260904041531 | 53 | 77 | 0.0 | 3.0 | 0.00 | 0.01 | 0.01 | 88 | 1012.8 |
| 20260904040030 | 53 | 67 | 1.0 | 2.0 | 0.00 | 0.01 | 0.01 | 88 | 1012.7 |
| 20260904034531 | 54 | 67 | 1.0 | 3.0 | 0.00 | 0.01 | 0.01 | 87 | 1012.7 |
| 20260904033029 | 54 | 72 | 1.0 | 5.0 | 0.00 | 0.01 | 0.01 | 86 | 1012.5 |